Twentynine Palms, CA

9:35 AM PDT on April 23, 2017 (GMT -0700)
Twentynine Palms Expeditionary Air Field

Weather History for KNXP - October, 2012

Change the Weather History Date:

Saturday, October 13, 2012

  Actual Average Record
Temperature  
Mean Temperature 66 °F -  
Max Temperature 80 °F 83 °F 98 °F (1996)
Min Temperature 52 °F 55 °F 48 °F (2008)
Growing Degree Days 16 (Base 50)    
Moisture  
Dew Point 43 °F    
Average Humidity 48    
Maximum Humidity 74    
Minimum Humidity 25    
Precipitation  
Precipitation 0.00 in - - ()
Sea Level Pressure  
Sea Level Pressure 30.03 in    
Wind  
Wind Speed 6 mph (NW)    
Max Wind Speed 12 mph    
Max Gust Speed -    
Visibility 10 miles    
Events      
Averages and records for this station are not official NWS values.
T = Trace of Precipitation, MM = Missing Value Source: NWS Daily Summary

Daily Weather History Graph

Daily Weather History Graph

Search for Another Location

Airport or City:

Trip Planner

Search our weather history database for the weather conditions in past years. The results will help you decide how hot, cold, wet, or windy it might be!

Date:

Astronomy

Oct. 13, 2012 Rise Set
Actual Time 6:48 AM PDT 6:12 PM PDT
Civil Twilight 6:23 AM PDT 6:37 PM PDT
Nautical Twilight 5:54 AM PDT 7:06 PM PDT
Astronomical Twilight 5:25 AM PDT 7:35 PM PDT
Moon 4:47 AM PDT (10/13) 4:56 PM PDT (10/13)
Length of Visible Light 12h 13m
Length of Day
11h 23m
Waning Crescent, 4% of the Moon is Illuminated
Oct 13
Waning Crescent
Oct 15
New
Oct 21
First Quarter
Oct 29
Full
Nov 6
Last Quarter

Hourly Weather History & Observations

Time (PDT) Temp. Dew Point Humidity Pressure Visibility Wind Dir Wind Speed Gust Speed Precip Events Conditions
12:56 AM 57.0 °F 44.1 °F 62% 29.48 in 10.0 mi NW 9.2 mph - N/A   Clear
1:56 AM 55.9 °F 45.0 °F 67% 29.48 in 10.0 mi NW 6.9 mph - N/A   Clear
2:56 AM 55.0 °F 45.0 °F 69% 30.14 in 10.0 mi NW 10.4 mph - N/A   Clear
3:56 AM 54.0 °F 45.0 °F 72% 29.47 in 10.0 mi NW 9.2 mph - N/A   Clear
4:56 AM 53.1 °F 44.1 °F 71% 30.16 in 10.0 mi NNW 6.9 mph - N/A   Clear
5:56 AM 52.0 °F 44.1 °F 74% 30.17 in 10.0 mi West 6.9 mph - N/A   Clear
6:56 AM 52.0 °F 44.1 °F 74% 30.19 in 10.0 mi West 6.9 mph - N/A   Clear
7:56 AM 53.1 °F 44.1 °F 71% 30.20 in 8.0 mi Calm Calm - N/A   Clear
8:56 AM 59.0 °F 45.0 °F 60% 30.22 in 10.0 mi NW 6.9 mph - N/A   Clear
9:56 AM 63.0 °F 45.0 °F 52% 30.22 in 10.0 mi Variable 3.5 mph - N/A   Clear
10:56 AM 68.0 °F 44.1 °F 42% 30.20 in 10.0 mi Calm Calm - N/A   Clear
11:56 AM 70.0 °F 42.1 °F 36% 30.19 in 10.0 mi WNW 3.5 mph - N/A   Clear
12:56 PM 72.0 °F 42.1 °F 34% 30.16 in 10.0 mi Calm Calm - N/A   Clear
1:56 PM 75.9 °F 42.1 °F 30% 30.13 in 10.0 mi East 3.5 mph - N/A   Clear
2:56 PM 78.1 °F 41.0 °F 27% 30.10 in 10.0 mi WNW 4.6 mph - N/A   Clear
3:56 PM 78.1 °F 41.0 °F 27% 30.09 in 10.0 mi Variable 3.5 mph - N/A   Clear
4:56 PM 79.0 °F 39.9 °F 25% 30.07 in 10.0 mi NNW 6.9 mph - N/A   Clear
5:56 PM 77.0 °F 41.0 °F 28% 30.08 in 10.0 mi NNW 5.8 mph - N/A   Clear
6:56 PM 73.0 °F 42.1 °F 33% 30.10 in 10.0 mi NNW 3.5 mph - N/A   Clear
7:56 PM 70.0 °F 42.1 °F 36% 29.45 in 10.0 mi WNW 5.8 mph - N/A   Clear
8:56 PM 68.0 °F 41.0 °F 37% 30.12 in 10.0 mi West 8.1 mph - N/A   Clear
9:56 PM 66.9 °F 39.9 °F 37% 30.13 in 10.0 mi WSW 11.5 mph - N/A   Clear
10:56 PM 64.9 °F 39.9 °F 40% 30.13 in 10.0 mi WNW 6.9 mph - N/A   Clear
11:56 PM 63.0 °F 39.0 °F 41% 30.12 in 10.0 mi Calm Calm - N/A   Clear